Location: Phoenix
(33.4480°N, 112.0730°W)
Time: 15:01:41
(UTC-07:00)

ISS - All Passes

Search period start: 27 May 2016 00:00
Search period end: 06 June 2016 00:00
Orbit: 402 x 404 km, 51.6° (Epoch: 27 May)

Date Brightness Start Highest point End Pass type
(mag) Time Alt. Az. Time Alt. Az. Time Alt. Az.
27 May - 04:06:28 10° NNW 04:09:28 33° NE 04:12:26 10° ESE visible
27 May - 05:43:31 10° W 05:45:41 17° SW 05:47:50 10° S daylight
27 May - 20:42:42 10° SW 20:45:57 78° NW 20:49:12 10° NE visible
27 May - 22:22:28 10° NW 22:22:51 10° NNW 22:23:14 10° NNW visible
28 May - 03:14:12 10° NNW 03:16:34 18° NNE 03:18:56 10° E visible
28 May - 04:50:04 10° WNW 04:53:05 36° SW 04:56:06 10° SSE visible
28 May - 19:50:09 10° SSW 19:53:15 43° SE 19:56:22 10° ENE daylight
28 May - 21:27:40 10° WNW 21:29:50 16° NNW 21:32:02 10° N visible
29 May - 02:22:30 10° N 02:23:35 11° NNE 02:24:38 10° NE visible
29 May - 03:57:09 10° NW 04:00:25 87° SW 04:03:40 10° SE visible
29 May - 18:58:13 10° S 19:00:38 19° SE 19:03:04 10° E daylight
29 May - 20:34:02 10° W 20:36:55 29° NW 20:39:50 10° NNE visible
30 May - 03:04:33 10° NNW 03:07:39 41° NE 03:10:44 10° ESE visible
30 May - 04:42:09 10° W 04:43:47 13° SW 04:45:25 10° SSW visible
30 May - 19:40:53 10° WSW 19:44:06 61° NW 19:47:20 10° NE daylight
31 May - 02:12:10 10° NNW 02:14:47 21° NE 02:17:21 10° E visible
31 May - 03:48:21 10° WNW 03:51:12 28° SW 03:54:03 10° SSE night (unlit)
31 May - 18:48:10 10° SSW 18:51:23 56° SE 18:54:35 10° NE daylight
31 May - 20:26:12 10° WNW 20:28:04 14° NNW 20:29:55 10° N visible
01 Jun - 01:20:13 10° N 01:21:48 13° NNE 01:23:24 10° ENE visible
01 Jun - 02:55:19 10° NW 02:58:33 67° SW 03:01:46 10° SE night (unlit)
01 Jun - 17:56:01 10° S 17:58:43 24° SE 18:01:26 10° ENE daylight
01 Jun - 19:32:22 10° W 19:35:06 24° NW 19:37:50 10° NNE daylight
02 Jun - 02:02:37 10° NW 02:05:48 51° NE 02:08:58 10° ESE night (unlit)
02 Jun - 03:41:15 10° WSW 03:41:51 10° SW 03:42:28 10° SW night (unlit)
02 Jun - 17:05:02 10° SE 17:06:09 11° SE 17:07:17 10° ESE daylight
02 Jun - 18:39:05 10° WSW 18:42:14 47° NW 18:45:25 10° NE daylight
03 Jun - 01:10:09 10° NNW 01:12:57 25° NE 01:15:44 10° E visible
03 Jun - 02:46:41 10° WNW 02:49:18 22° SW 02:51:54 10° S night (unlit)
03 Jun - 17:46:13 10° SW 17:49:28 74° SE 17:52:44 10° NE daylight
03 Jun - 19:24:48 10° NW 19:26:15 12° NNW 19:27:42 10° N daylight
04 Jun - 00:18:01 10° N 00:19:59 15° NNE 00:21:57 10° ENE visible
04 Jun - 01:53:28 10° NW 01:56:39 51° SW 01:59:48 10° SSE night (unlit)
04 Jun - 16:53:53 10° SSW 16:56:48 31° SE 16:59:43 10° ENE daylight
04 Jun - 18:30:44 10° W 18:33:15 20° NW 18:35:48 10° NNE daylight
05 Jun - 01:00:40 10° NW 01:03:55 66° NE 01:07:08 10° SE night (unlit)
05 Jun - 16:02:20 10° SSE 16:04:11 14° SE 16:06:02 10° E daylight
05 Jun - 17:37:18 10° WSW 17:40:22 38° NW 17:43:26 10° NNE daylight
